Date,TemperatureHighF,TemperatureAvgF,TemperatureLowF,DewpointHighF,DewpointAvgF,DewpointLowF,HumidityHigh,HumidityAvg,HumidityLow,PressureMaxIn,PressureMinIn,WindSpeedMaxMPH,WindSpeedAvgMPH,GustSpeedMaxMPH,PrecipitationSumIn
2013-9-1,91.3,78.8,75.4,81.5,75.6,73.2,96,90,67,29.95,29.87,4,0,8,0.67
2013-9-2,94.0,83.5,76.5,80.9,77.8,75.7,99,84,61,29.99,29.88,4,1,8,0.00
2013-9-3,95.7,80.6,72.2,81.7,76.0,71.4,99,88,54,29.99,29.86,8,0,12,3.09
2013-9-4,92.2,78.2,71.0,81.2,75.5,70.6,100,92,64,30.08,29.96,4,0,6,2.48
2013-9-5,94.3,80.5,72.9,80.6,75.8,72.6,100,87,55,30.13,30.02,5,0,8,0.04
2013-9-6,93.2,81.1,72.6,77.5,74.0,71.0,99,81,52,30.11,29.99,4,0,6,0.00
2013-9-7,95.2,80.9,69.7,75.1,72.1,68.9,98,77,46,30.06,29.97,3,0,6,0.00
2013-9-8,95.5,81.6,71.1,76.5,73.4,70.2,98,79,47,30.00,29.93,4,0,6,0.00
2013-9-9,95.3,81.5,71.5,77.7,73.5,70.6,98,79,49,30.05,29.97,6,0,7,0.00
2013-9-10,94.0,80.9,73.8,76.9,74.1,71.5,96,81,55,30.13,30.03,5,0,9,0.00
2013-9-11,75.1,74.4,73.8,73.9,73.3,72.5,97,96,96,30.11,30.08,1,0,2,0.00
2013-9-15,92.1,77.3,69.0,74.8,67.2,62.3,87,72,54,30.07,29.98,3,0,5,0.00
2013-9-17,78.6,78.0,77.4,75.3,74.5,74.2,90,89,87,30.05,30.04,2,0,5,0.00
2013-9-18,85.9,79.3,74.4,76.6,73.9,72.0,93,84,68,30.09,30.01,3,0,8,0.00
2013-9-19,90.6,80.9,73.5,76.1,73.0,69.4,93,78,56,30.08,29.99,4,1,8,0.05
2013-9-20,90.2,79.9,72.4,78.8,75.6,71.5,98,87,67,30.02,29.85,7,0,9,0.00
2013-9-21,79.9,76.6,70.7,77.9,75.2,70.1,98,95,88,29.84,29.72,6,0,8,0.35
2013-9-22,81.8,73.0,68.1,72.4,68.9,65.3,99,87,71,29.81,29.74,8,1,8,0.10
2013-9-23,91.7,81.3,66.6,78.3,73.5,64.1,95,78,61,29.89,29.80,5,0,6,0.00
2013-9-24,87.1,76.7,70.4,79.6,74.8,69.5,99,94,76,29.90,29.77,6,0,8,1.49
2013-9-25,90.3,77.1,71.1,76.0,72.6,70.8,99,87,57,29.83,29.76,7,0,7,0.01
2013-9-26,92.4,79.4,69.8,77.2,72.0,67.7,99,81,47,29.92,29.81,3,0,5,0.00
2013-9-30,83.4,76.4,70.5,72.1,70.3,68.7,95,82,65,29.99,29.93,3,0,5,0.00